Volver al catálogo

AMOS 17

ActivoComunicacionesGEO
NORAD 44479·PAYLOAD·🇮🇱 Israel

Lanzado Aug 6, 2019 desde Cape Canaveral Space Force Station

Loading…

TLE

ActualizadoSource: Space-Track

Época: Sep 14, 2026, 13:53 UTC

1 44479U 19050A   26257.57848103  .00000101  00000-0  00000-0 0  9993
2 44479   0.0391   2.2972 0002113 171.9596  44.5772  1.00270328 26088

Sigue AMOS 17 en tiempo real con AllMySat

Download on the App Store